Bluefield, WV

5:01 PM EDT on September 27, 2016 (GMT -0400)
Mercer County

Weather History for KBLF - May, 2013

Change the Weather History Date:

Monday, May 6, 2013

  Actual Average Record
Temperature  
Mean Temperature 53 °F 60 °F  
Max Temperature 56 °F 70 °F 84 °F (2014)
Min Temperature 50 °F 51 °F 32 °F (1968)
Degree Days  
Heating Degree Days 12 6  
Month to date heating degree days 53 38  
Since 1 July heating degree days 4581 4468  
Cooling Degree Days 0 1  
Month to date cooling degree days 0 6  
Year to date cooling degree days 27 34  
Growing Degree Days 2 (Base 50)    
Moisture  
Dew Point 48 °F    
Average Humidity 85    
Maximum Humidity 93    
Minimum Humidity 77    
Precipitation  
Precipitation 0.72 in 0.13 in 1.69 in (1971)
Month to date precipitation 0.77 0.78  
Year to date precipitation 16.07 13.29  
Snow  
Snow 0.00 in - - ()
Month to date snowfall 0.0  
Since 1 July snowfall 56.0  
Snow Depth 0.00 in    
Sea Level Pressure  
Sea Level Pressure 29.91 in    
Wind  
Wind Speed 9 mph (East)    
Max Wind Speed 22 mph    
Max Gust Speed 37 mph    
Visibility 8 miles    
Events Rain    
T = Trace of Precipitation, MM = Missing Value Source: NWS Daily Summary

Daily Weather History Graph

Daily Weather History Graph

Search for Another Location

Airport or City:

Trip Planner

Search our weather history database for the weather conditions in past years. The results will help you decide how hot, cold, wet, or windy it might be!

Date:

Astronomy

May. 06, 2013 Rise Set
Actual Time 6:24 AM EDT 8:19 PM EDT
Civil Twilight 5:55 AM EDT 8:47 PM EDT
Nautical Twilight 5:21 AM EDT 9:22 PM EDT
Astronomical Twilight 4:44 AM EDT 9:59 PM EDT
Moon 4:21 AM EDT (5/6) 5:21 PM EDT (5/6)
Length of Visible Light 14h 51m
Length of Day
13h 54m
Waning Crescent, 11% of the Moon is Illuminated
May 6
Waning Crescent
May 9
New
May 18
First Quarter
May 25
Full
May 31
Last Quarter

Hourly Weather History & Observations

Time (EDT) Temp. Dew Point Humidity Pressure Visibility Wind Dir Wind Speed Gust Speed Precip Events Conditions
12:01 AM 50.0 °F 46.4 °F 87% 29.95 in 5.0 mi East 9.2 mph 20.7 mph 0.00 in Rain Light Rain
12:52 AM 51.1 °F 46.9 °F 86% 29.92 in 3.0 mi East 12.7 mph 24.2 mph 0.02 in Rain Light Rain
12:54 AM 51.8 °F 46.4 °F 82% 29.95 in 2.5 mi East 11.5 mph 21.9 mph 0.00 in Rain Rain
1:03 AM 51.8 °F 46.4 °F 82% 29.95 in 4.0 mi East 11.5 mph 28.8 mph 0.00 in Rain Light Rain
1:52 AM 51.1 °F 46.0 °F 83% 29.92 in 10.0 mi ESE 11.5 mph 29.9 mph 0.03 in Rain Light Rain
2:52 AM 51.1 °F 46.9 °F 86% 29.88 in 8.0 mi East 10.4 mph 31.1 mph 0.02 in Rain Light Rain
2:59 AM 51.8 °F 46.4 °F 82% 29.90 in 8.0 mi East 12.7 mph 29.9 mph 0.00 in Rain Light Rain
3:10 AM 51.8 °F 46.4 °F 82% 29.90 in 10.0 mi East 10.4 mph 25.3 mph 0.00 in Rain Light Rain
3:52 AM 51.1 °F 46.9 °F 86% 29.87 in 6.0 mi East 12.7 mph 26.5 mph 0.01 in Rain Light Rain
4:52 AM 52.0 °F 46.9 °F 83% 29.87 in 9.0 mi East 17.3 mph 32.2 mph 0.02 in Rain Light Rain
5:52 AM 52.0 °F 46.9 °F 83% 29.86 in 9.0 mi East 11.5 mph 31.1 mph 0.02 in Rain Light Rain
6:52 AM 52.0 °F 46.9 °F 83% 29.86 in 10.0 mi East 13.8 mph 31.1 mph 0.01 in Rain Light Rain
7:52 AM 53.1 °F 46.9 °F 80% 29.86 in 10.0 mi East 16.1 mph 29.9 mph 0.01 in   Overcast
8:52 AM 53.1 °F 48.0 °F 83% 29.87 in 5.0 mi ESE 12.7 mph 31.1 mph 0.01 in Rain Light Rain
9:52 AM 53.1 °F 48.0 °F 83% 29.89 in 10.0 mi East 12.7 mph 31.1 mph 0.01 in Rain Light Rain
10:40 AM 53.6 °F 48.2 °F 82% 29.92 in 2.5 mi East 12.7 mph 25.3 mph 0.02 in Rain Rain
10:48 AM 53.6 °F 48.2 °F 82% 29.93 in 4.0 mi ESE 12.7 mph 28.8 mph 0.02 in Rain Light Rain
10:52 AM 54.0 °F 48.9 °F 83% 29.90 in 4.0 mi ESE 16.1 mph 27.6 mph 0.02 in Rain Rain
11:02 AM 53.6 °F 48.2 °F 82% 29.93 in 4.0 mi ESE 11.5 mph 27.6 mph 0.01 in Rain Rain
11:09 AM 53.6 °F 48.2 °F 82% 29.94 in 5.0 mi ESE 11.5 mph 28.8 mph 0.01 in Rain Rain
11:52 AM 55.0 °F 48.9 °F 80% 29.89 in 10.0 mi East 9.2 mph 26.5 mph 0.11 in Rain Light Rain
12:03 PM 53.6 °F 48.2 °F 82% 29.93 in 4.0 mi East 12.7 mph 24.2 mph 0.02 in Rain Light Rain
12:24 PM 53.6 °F 48.2 °F 82% 29.94 in 7.0 mi ESE 11.5 mph 25.3 mph 0.06 in Rain Light Rain
12:36 PM 53.6 °F 48.2 °F 82% 29.94 in 4.0 mi ESE 9.2 mph 19.6 mph 0.08 in Rain Rain
12:52 PM 53.1 °F 48.0 °F 83% 29.90 in 7.0 mi ESE 12.7 mph 26.5 mph 0.10 in Rain Light Rain
1:36 PM 55.4 °F 50.0 °F 82% 29.93 in 7.0 mi ESE 11.5 mph 18.4 mph 0.04 in Rain Light Rain
1:52 PM 55.0 °F 50.0 °F 83% 29.89 in 9.0 mi ESE 12.7 mph 20.7 mph 0.05 in Rain Light Rain
2:11 PM 55.4 °F 50.0 °F 82% 29.93 in 10.0 mi East 9.2 mph 20.7 mph 0.02 in Rain Light Rain
2:25 PM 53.6 °F 48.2 °F 82% 29.93 in 7.0 mi East 8.1 mph 17.3 mph 0.02 in Rain Rain
2:35 PM 55.4 °F 51.8 °F 88% 29.93 in 6.0 mi East 9.2 mph 18.4 mph 0.03 in Rain Rain
2:52 PM 55.0 °F 50.0 °F 83% 29.89 in 9.0 mi East 11.5 mph 18.4 mph 0.04 in Rain Light Rain
3:52 PM 54.0 °F 48.9 °F 83% 29.88 in 4.0 mi East 8.1 mph - 0.03 in Rain Rain
4:21 PM 55.4 °F 51.8 °F 88% 29.91 in 10.0 mi ENE 4.6 mph - 0.02 in Rain Light Rain
4:38 PM 55.4 °F 51.8 °F 88% 29.90 in 10.0 mi Variable 6.9 mph - 0.03 in Rain Light Rain
4:52 PM 55.0 °F 50.0 °F 83% 29.86 in 10.0 mi Variable 5.8 mph - 0.04 in Rain Light Rain
5:49 PM 53.6 °F 50.0 °F 88% 29.90 in 2.5 mi NE 6.9 mph - 0.03 in Rain Light Rain
6:52 PM 54.0 °F 50.0 °F 86% 29.86 in 10.0 mi ENE 4.6 mph - 0.03 in   Overcast
7:52 PM 54.0 °F 51.1 °F 90% 29.88 in 10.0 mi East 4.6 mph - 0.03 in   Overcast
8:29 PM 53.6 °F 42.8 °F 67% 29.94 in 10.0 mi WSW 4.6 mph - 0.02 in   Overcast
8:52 PM 53.1 °F 45.0 °F 74% 29.90 in 10.0 mi Calm Calm - 0.03 in Rain Light Rain
9:12 PM 51.8 °F 48.2 °F 88% 29.94 in 10.0 mi East 3.5 mph - 0.01 in   Overcast
9:44 PM 53.6 °F 50.0 °F 88% 29.93 in 10.0 mi ENE 6.9 mph 16.1 mph 0.02 in Rain Light Rain
9:52 PM 54.0 °F 50.0 °F 86% 29.90 in 10.0 mi Variable 4.6 mph - 0.02 in Rain Light Rain
9:59 PM 53.6 °F 50.0 °F 88% 29.94 in 10.0 mi Calm Calm - N/A   Mostly Cloudy
10:37 PM 53.6 °F 50.0 °F 88% 29.95 in 10.0 mi ENE 3.5 mph - 0.02 in   Overcast
10:52 PM 54.0 °F 50.0 °F 86% 29.91 in 10.0 mi East 3.5 mph - 0.02 in   Overcast
11:33 PM 53.6 °F 50.0 °F 88% 29.95 in 10.0 mi ENE 3.5 mph - 0.01 in   Overcast
11:52 PM 54.0 °F 50.0 °F 86% 29.90 in 10.0 mi Calm Calm - 0.02 in   Overcast